[[{"header":{"parameterUnit":"m.s-1","parameterCategory":1,"la1":30.2991,"la2":30.254,"lo1":-89.0895,"lo2":-89.0444,"dy":0.0017,"dx":0.0017,"nx":28,"ny":28,"refTime":"2025-07-18T09:00:00:Z","depth":0,"parameterNumber":2,"parameterNumberName":"U-component_of_WINDS"},"data":[0,0,0,0,0,0,0,0,0,0,0,0,0,0,0,0,0,0,0,0,0,0,0,0,0,0,0,0,0,0,0,0,0,0,0,0,0,0,0,0,0,0,0,0,0,0,0,0,0,0,0,0,0,0,0,0,0,0,2.2495,2.2495,0,2.2466,2.2466,2.2466,2.237,2.2368,2.2366,2.2364,2.2334,2.2335,2.2336,0,0,0,0,0,0,0,0,0,0,0,0,0,2.2465,2.2466,2.2495,2.2495,2.2494,2.2466,2.2466,2.2466,2.237,2.2368,2.2365,2.2363,2.2333,2.2335,2.2336,0,0,0,0,0,0,0,0,0,0,0,0,0,2.2461,2.2466,2.2495,2.2444,2.2439,2.2466,2.2466,2.2465,2.2371,2.2368,2.2365,2.2362,2.2333,2.2335,2.2336,2.2412,0,0,2.2342,2.2343,0,0,0,0,0,0,0,0,2.2462,2.2463,2.2452,2.2447,2.2442,2.2418,2.2444,2.2447,2.2372,2.2397,2.2364,2.236,2.2365,2.2363,2.2365,2.241,2.2409,2.2342,2.2343,2.2344,2.2344,0,0,0,0,0,0,0,2.2462,2.2463,2.2484,2.2451,2.2445,2.2421,2.2417,2.2444,2.2399,2.2394,2.2387,2.2385,2.2361,2.2364,2.2364,2.2408,2.2342,2.2344,2.2345,2.2345,2.2509,2.2512,0,0,0,0,0,0,2.247,2.2464,2.2485,2.2483,2.2444,2.2424,2.242,2.2429,2.2398,2.2391,2.2388,2.2381,2.2362,2.2362,2.2362,2.2445,2.2344,2.2346,2.2347,2.2506,2.251,2.2514,0,0,0,0,0,0,2.247,2.2473,2.2486,2.2472,2.2471,2.2428,2.244,2.243,2.2433,2.2394,2.2385,2.2399,2.236,2.236,2.2399,2.2443,2.2346,2.2348,2.2502,2.2507,2.2512,2.2613,0,0,0,0,0,0,2.2469,2.2473,2.2502,2.2473,2.2472,2.2524,2.2442,2.2432,2.2436,2.2426,2.2402,2.2394,2.2357,2.2397,2.2401,2.2443,2.2349,2.2498,2.2504,2.251,2.2605,2.2621,2.2634,0,0,0,0,0,2.2469,2.2533,2.2504,2.2507,2.2508,2.2527,2.2527,2.2483,2.244,2.2468,2.2442,2.2395,2.2438,2.2402,2.2405,2.2449,2.2495,2.2503,2.251,2.2599,2.2618,2.2633,0,0,0,0,0,0,2.2569,2.2528,2.2496,2.2553,2.2544,2.2511,2.2545,2.2504,2.2507,2.2498,2.2443,2.2439,2.2485,2.2471,2.2432,2.2518,2.2458,2.2467,2.2525,2.2542,2.2556,2.2557,2.2351,0,0,0,0,0,2.2597,2.2617,2.258,2.2633,2.2631,2.2589,2.2596,2.2562,2.2551,2.2547,2.2524,2.2515,2.2525,2.2533,2.2542,2.2604,2.2595,2.2635,2.265,2.2661,2.2668,2.2696,2.2713,2.2538,2.2538,2.2538,0,0,2.2657,2.2637,2.2653,2.2653,2.2642,2.2662,2.2586,2.2612,2.2625,2.255,2.2585,2.2568,2.2554,2.2604,2.2625,2.2594,2.2715,2.2671,2.268,2.2681,2.2706,2.2722,2.2737,2.2543,2.2542,2.2541,0,0,2.2774,2.2763,2.2804,2.2794,2.2778,2.275,2.276,2.2733,2.2718,2.2752,2.2695,2.2711,2.2732,2.2722,2.272,2.2832,2.2787,2.2837,2.2909,2.2937,2.2951,2.2963,2.2999,2.3013,2.2844,2.2845,2.2845,0,2.2849,2.2878,2.283,2.2858,2.2858,2.2791,2.2831,2.2825,2.2813,2.2814,2.278,2.2802,2.2788,2.2833,2.286,2.2862,2.2869,2.2838,2.2953,2.2964,2.2975,2.3009,2.3023,2.285,2.285,2.2849,2.2849,0,2.2969,2.299,2.3025,2.3013,2.3018,2.3053,2.3009,2.3019,2.2985,2.296,2.2994,2.2974,2.2975,2.2984,2.2952,2.3024,2.3005,2.2963,2.2901,2.2998,2.3029,2.3042,2.2859,2.2857,2.2855,2.2853,0,0,2.3148,2.3109,2.3123,2.3115,2.3092,2.3106,2.3137,2.3137,2.3145,2.314,2.3161,2.318,2.3139,2.3137,2.3104,2.3129,2.3214,2.3083,2.3082,2.3105,2.3287,2.3317,2.3333,2.3185,2.3187,2.3189,2.3287,0,2.3257,2.3305,2.3263,2.3319,2.3335,2.3271,2.3297,2.3285,2.3262,2.3271,2.3245,2.3257,2.3206,2.3203,2.3226,2.3199,2.3249,2.3192,2.3202,2.3203,2.3205,2.3349,2.3381,2.3475,2.33,2.3302,2.3303,0,2.339,2.3388,2.3446,2.3416,2.3421,2.3445,2.344,2.3451,2.3435,2.3416,2.3413,2.3371,2.3397,2.3339,2.3371,2.3333,2.3335,2.3323,2.3325,2.3322,2.3257,2.3347,2.3504,2.3517,2.3322,2.3321,2.3319,0,2.351,2.3522,2.3557,2.3554,2.3521,2.3538,2.3526,2.3507,2.3509,2.3505,2.3505,2.3505,2.3504,2.3505,2.3463,2.3425,2.35,2.3439,2.3482,2.3483,2.3499,2.3498,2.3655,2.3506,2.3506,2.3506,2.3505,0,2.3633,2.367,2.361,2.3632,2.367,2.362,2.366,2.364,2.3623,2.3638,2.3584,2.36,2.3545,2.3554,2.3522,2.3552,2.3553,2.3537,2.3527,2.354,2.3541,2.3538,2.3529,2.3509,2.3509,2.3508,2.3507,0,2.3773,2.3735,2.3768,2.3734,2.3726,2.3756,2.3725,2.3743,2.3716,2.3736,2.3737,2.3695,2.3702,2.3661,2.3662,2.364,2.3685,2.3666,2.369,2.3683,2.3727,2.3722,2.3885,2.3902,2.3746,2.3748,2.3749,0,2.3853,2.3879,2.3847,2.3853,2.3843,2.3854,2.3855,2.3807,2.381,2.3793,2.3812,2.3815,2.3814,2.3829,2.3798,2.3797,2.3776,2.3833,2.3775,2.3786,2.3772,2.3769,2.377,2.3844,2.3846,2.3847,2.3849,0,2.3997,2.3976,2.398,2.3977,2.398,2.3976,2.3967,2.3975,2.3923,2.3929,2.3936,2.3936,2.3935,2.3938,2.3931,2.3916,2.3873,2.3867,2.3877,2.3888,2.3899,2.389,2.3719,2.3863,2.3862,2.3861,2.386,2.3859,2.4106,2.4125,2.4105,2.411,2.4099,2.4092,2.4105,2.4079,2.4084,2.408,2.4051,2.4062,2.4043,2.4029,2.4018,2.4026,2.3998,2.4013,2.4016,2.4019,2.4025,2.3901,2.4025,2.4024,2.4024,2.4023,2.4023,0,2.4244,2.4228,2.4233,2.4222,2.4226,2.4186,2.4174,2.418,2.419,2.4176,2.4176,2.4183,2.4184,2.4153,2.415,2.4162,2.4142,2.4162,2.4159,2.4156,2.4052,2.4042,2.4178,2.4178,2.4178,2.4178,2.4178,2.4178,2.4316,2.4345,2.4322,2.4344,2.4326,2.4337,2.4333,2.4325,2.4313,2.4322,2.4323,2.4303,2.4281,2.4276,2.4275,2.4265,2.4265,2.4292,2.4276,2.4179,2.4164,2.4149,2.414,2.4294,2.4294,2.4378,2.4379,2.4379]},{"header":{"parameterUnit":"m.s-1","parameterCategory":1,"la1":30.2991,"la2":30.254,"lo1":-89.0895,"lo2":-89.0444,"dy":0.0017,"dx":0.0017,"nx":28,"ny":28,"refTime":"2025-07-18T09:00:00:Z","depth":0,"parameterNumber":3,"parameterNumberName":"V-component_of_WINDS"},"data":[0,0,0,0,0,0,0,0,0,0,0,0,0,0,0,0,0,0,0,0,0,0,0,0,0,0,0,0,0,0,0,0,0,0,0,0,0,0,0,0,0,0,0,0,0,0,0,0,0,0,0,0,0,0,0,0,0,0,4.2552,4.2554,0,4.2729,4.2731,4.2733,4.2724,4.2721,4.2719,4.2716,4.2895,4.2902,4.2909,0,0,0,0,0,0,0,0,0,0,0,0,0,4.22,4.2207,4.2552,4.2554,4.2556,4.2729,4.2731,4.2734,4.2724,4.2721,4.2718,4.2715,4.2893,4.2901,4.291,0,0,0,0,0,0,0,0,0,0,0,0,0,4.2363,4.2209,4.2551,4.2572,4.2576,4.2728,4.2731,4.2734,4.2725,4.2721,4.2717,4.2714,4.289,4.29,4.2911,4.3053,0,0,4.2944,4.2948,0,0,0,0,0,0,0,0,4.2354,4.2376,4.2567,4.2571,4.2575,4.27,4.2673,4.2841,4.2726,4.2668,4.2716,4.2712,4.2833,4.2848,4.289,4.3062,4.3069,4.2945,4.2951,4.2956,4.2959,0,0,0,0,0,0,0,4.2342,4.2368,4.2622,4.257,4.2575,4.2571,4.259,4.2705,4.277,4.2673,4.2673,4.2694,4.2835,4.288,4.2894,4.3072,4.2944,4.2954,4.296,4.2965,4.3365,4.3369,0,0,0,0,0,0,4.2327,4.2359,4.2616,4.2627,4.2453,4.2581,4.2602,4.2664,4.2769,4.2781,4.2697,4.2693,4.2863,4.2882,4.29,4.3072,4.2956,4.2966,4.2972,4.3361,4.3366,4.3371,0,0,0,0,0,0,4.2319,4.235,4.2609,4.2493,4.2526,4.2591,4.2661,4.267,4.2714,4.2787,4.2798,4.2731,4.2861,4.2885,4.3015,4.3078,4.297,4.298,4.3356,4.3363,4.3368,4.3416,0,0,0,0,0,0,4.2309,4.2347,4.2403,4.2494,4.2532,4.2722,4.2665,4.2676,4.2733,4.2729,4.2822,4.2833,4.286,4.2999,4.3025,4.309,4.2989,4.3351,4.3359,4.3366,4.3409,4.3423,4.3435,0,0,0,0,0,4.2297,4.241,4.2406,4.2437,4.2603,4.2726,4.2747,4.2776,4.2738,4.2794,4.284,4.283,4.3067,4.3012,4.3042,4.3111,4.3347,4.3357,4.3366,4.3403,4.3421,4.3435,0,0,0,0,0,0,4.2325,4.2422,4.2419,4.2566,4.2637,4.2724,4.2795,4.2794,4.2877,4.287,4.2901,4.2922,4.3051,4.3094,4.3032,4.3252,4.3202,4.3218,4.322,4.3237,4.325,4.3236,4.2997,0,0,0,0,0,4.2348,4.244,4.252,4.2641,4.2677,4.273,4.2784,4.28,4.2876,4.2906,4.2961,4.3034,4.3124,4.3183,4.327,4.3415,4.3434,4.3477,4.349,4.3501,4.3514,4.3591,4.3611,4.3402,4.3402,4.3402,0,0,4.2397,4.2461,4.2518,4.2648,4.2706,4.2799,4.2756,4.2857,4.2926,4.2921,4.3046,4.3089,4.3172,4.3309,4.3372,4.3349,4.3576,4.3513,4.3521,4.3528,4.3603,4.3623,4.364,4.3408,4.3407,4.3406,0,0,4.2533,4.2592,4.2698,4.2756,4.2844,4.2878,4.2903,4.299,4.3018,4.3144,4.3142,4.3223,4.3379,4.3437,4.3487,4.3642,4.3635,4.3669,4.3738,4.3812,4.3829,4.3843,4.3897,4.3916,4.3682,4.3683,4.3683,0,4.2582,4.2723,4.2752,4.2854,4.291,4.291,4.3016,4.3071,4.3182,4.322,4.3192,4.3386,4.3442,4.3591,4.3628,4.367,4.3698,4.3659,4.3824,4.3839,4.3853,4.3905,4.3925,4.3686,4.3686,4.3685,4.3685,0,4.2778,4.2876,4.2951,4.3058,4.3123,4.3226,4.3269,4.3331,4.334,4.3376,4.3503,4.357,4.367,4.3706,4.3717,4.3857,4.3839,4.3818,4.3767,4.3876,4.3925,4.3945,4.3691,4.369,4.3689,4.3688,0,0,4.2938,4.3059,4.3085,4.3133,4.3228,4.3304,4.3405,4.3503,4.3554,4.363,4.3715,4.3845,4.3825,4.3882,4.3899,4.3965,4.408,4.3935,4.3937,4.3958,4.4235,4.425,4.4273,4.4076,4.408,4.4083,4.4228,0,4.3083,4.3265,4.3292,4.3452,4.3541,4.3541,4.3629,4.3696,4.3732,4.3811,4.3851,4.3942,4.391,4.3943,4.4009,4.4052,4.4136,4.4042,4.4154,4.4157,4.4132,4.4298,4.4315,4.4448,4.4247,4.4251,4.4253,0,4.3276,4.3357,4.3525,4.3606,4.3644,4.3723,4.3813,4.389,4.3965,4.3986,4.4048,4.4057,4.416,4.4105,4.4247,4.4182,4.4229,4.4257,4.4263,4.4274,4.4211,4.4312,4.4492,4.4511,4.4283,4.4281,4.4279,0,4.3373,4.3524,4.3643,4.3684,4.3782,4.3837,4.388,4.3951,4.4007,4.4086,4.4122,4.4211,4.426,4.4328,4.4359,4.4316,4.4497,4.4446,4.4516,4.4515,4.4554,4.4551,4.4742,4.4586,4.4586,4.4586,4.4585,0,4.3531,4.3633,4.3688,4.3762,4.3875,4.3905,4.4016,4.4057,4.412,4.42,4.4205,4.428,4.4317,4.4397,4.4422,4.4534,4.4556,4.4575,4.458,4.4574,4.4571,4.4604,4.4595,4.4591,4.459,4.4589,4.4588,0,4.3659,4.37,4.383,4.3911,4.3933,4.4013,4.4082,4.4152,4.4187,4.4288,4.4313,4.4367,4.4461,4.4499,4.4614,4.463,4.4758,4.4757,4.4733,4.4735,4.4802,4.4795,4.5021,4.5051,4.4876,4.4878,4.4879,0,4.3756,4.3835,4.3924,4.3978,4.4023,4.411,4.4167,4.4198,4.4257,4.4346,4.4405,4.4499,4.4575,4.4725,4.4773,4.486,4.486,4.4933,4.4873,4.4864,4.4859,4.4854,4.4861,4.4944,4.4946,4.4947,4.4949,0,4.3924,4.394,4.4022,4.4111,4.4178,4.425,4.4319,4.4363,4.4404,4.447,4.4566,4.4625,4.4741,4.4833,4.4923,4.4965,4.4964,4.4967,4.4988,4.4982,4.4964,4.4972,4.4762,4.4962,4.496,4.4959,4.4959,4.4958,4.4039,4.4108,4.4181,4.4271,4.4326,4.439,4.446,4.4502,4.4583,4.4681,4.4694,4.4796,4.4866,4.4986,4.5032,4.5111,4.5092,4.5122,4.513,4.5137,4.514,4.4952,4.5128,4.5127,4.5127,4.5127,4.5126,0,4.4206,4.4252,4.4335,4.4431,4.4502,4.4494,4.457,4.4629,4.4719,4.4785,4.4859,4.4968,4.5057,4.5112,4.5201,4.5253,4.5254,4.5275,4.5271,4.528,4.5153,4.5126,4.5273,4.5273,4.5273,4.5273,4.5272,4.5272,4.4301,4.4416,4.444,4.4581,4.4627,4.4727,4.477,4.4829,4.4881,4.5002,4.5076,4.5112,4.5172,4.5265,4.5345,4.5359,4.5391,4.5413,4.5425,4.5305,4.529,4.5275,4.5249,4.542,4.542,4.5546,4.5547,4.5548]}]]